Simultaneous Nadir Overpasses (SNOs) Predictions

Prediction of SNOs between AQUA and GOES-15 Satellite Orbit:

Table of predicted SNOs for the next 14.0 days since TLE Epoch: 1/18/2020
Index Date Time (AQUA) AQUA Lat,Lon GOES-15 Lat,Lon Distance(km) Time Diff (sec)
1 01/18/2020 10:13:09 0.17,-129.39 -0.05,-128.43 108.79 80
2 01/20/2020 10:00:59 -0.49,-126.44 -0.05,-128.43 227.24 80
3 01/20/2020 22:22:24 -0.61,-131.63 0.05,-128.43 363.84 80
4 01/22/2020 22:10:13 -0.01,-128.67 0.04,-128.42 28.43 80
5 01/24/2020 21:58:02 0.61,-125.71 0.03,-128.41 306.68 80
6 01/25/2020 10:19:17 0.50,-130.86 -0.04,-128.41 279.69 80
7 01/27/2020 10:07:06 -0.11,-127.90 -0.04,-128.39 55.19 80
8 01/29/2020 09:54:56 -0.79,-124.96 -0.04,-128.38 389.74 80
9 01/29/2020 22:16:20 -0.36,-130.14 0.04,-128.38 201.22 80
10 01/31/2020 22:04:09 0.26,-127.18 0.04,-128.36 133.06 80




NCC Satellite Simultaneous Nadir Overpasses (SNOs) Prediction Service
